OpenBCM V1.08-5-g2f4a (Linux)

Packet Radio Mailbox

IZ3LSV

[San Dona' di P. JN]

 Login: GUEST





  
I0OJJ  > KEPS     27.09.25 01:45l 311 Lines 14846 Bytes #139 (0) @ AMSAT
BID : ORB25270.1
Read: GUEST
Subj: 2Line Orbital Elements 25270.AMSAT
Path: IZ3LSV<IK6IHL<IK7NXU<HB9ON<DK0WUE<PD0LPM<PI8ZTM<VK2IO<VK2RZ<LU9DCE<
      EA2RCF<I0OJJ
Sent: 250927/0025z @:I0OJJ.ITA.EU [Rome] obcm1.08-11-2-gbfe9
From: I0OJJ @ I0OJJ.ITA.EU (Gustavo)
To:   KEPS @ AMSAT
X-Info: This message was generated automatically


QST de W1STR

AMSAT Orbital Elements for Amateur Satellites in TLE Format
From Orbital Analysis Office
New England Sci-Tech STEM Education Center
Natick MA September 27, 2025
To all radio amateurs


These element sets describe the orbits of various satellites 
in use by the amateur radio community. For details see:
www.amsat.org/keplerian-elements-formats/

A daily update of element sets is available at:
www.amsat.org/tle/daily-bulletin.txt
or without bulletin text:
www.amsat.org/tle/dailytle.txt


AO-07
1 07530U 74089B   25269.43418683 -.00000038  00000-0  51404-4 0  9994
2 07530 101.9986 274.8736 0011912 275.0319 251.7895 12.53691885327466
UO-11
1 14781U 84021B   25268.88994509  .00003084  00000-0  32762-3 0  9999
2 14781  97.7679 233.2043 0007378 350.9197   9.1886 14.89719859217760
AO-27
1 22825U 93061C   25269.44846390  .00000262  00000-0  11699-3 0  9999
2 22825  98.7255 331.4901 0009003 148.0239 212.1492 14.30833703669281
FO-29
1 24278U 96046B   25269.51212882  .00000043  00000-0  77288-4 0  9994
2 24278  98.5562 148.9847 0350820  60.3929 303.1681 13.53254649437501
NOAA-15
1 25338U 98030A   25269.49273623  .00000324  00000-0  15058-3 0  9992
2 25338  98.5308 291.9815 0011048  45.1915 315.0162 14.27022558423687
GO-32
1 25397U 98043D   25269.50602935  .00000207  00000-0  10962-3 0  9994
2 25397  98.9832 250.9616 0000322 223.2048 136.9105 14.24342932413797
ISS
1 25544U 98067A   25269.21152987  .00014701  00000-0  26152-3 0  9991
2 25544  51.6332 166.3292 0002995  10.9396 349.1657 15.50384251530832
NO-44
1 26931U 01043C   25269.13070529  .00000483  00000-0  21157-3 0  9994
2 26931  67.0507 207.1664 0007121 274.6846  85.3443 14.31787041252644
SO-50
1 27607U 02058C   25269.28032298  .00004088  00000-0  51272-3 0  9995
2 27607  64.5534 224.9195 0067145 311.3316  48.2023 14.81951645225332
CO-55
1 27844U 03031E   25267.97116093  .00000641  00000-0  29796-3 0  9997
2 27844  98.6788 274.8773 0008639 231.8238 128.2163 14.24077436153925
CO-57
1 27848U 03031J   25267.97011275  .00000536  00000-0  25523-3 0  9994
2 27848  98.6819 274.8001 0008389 251.7168 108.3098 14.23400610153641
RS-22
1 27939U 03042A   25269.19087471  .00002441  00000-0  39133-3 0  9993
2 27939  98.3377  81.3500 0011974  31.0109  22.1607 14.72624962176681
CO-58
1 28895U 05043F   25268.86351619  .00003843  00000-0  62817-3 0  9991
2 28895  98.2658  54.6857 0013771 327.3705  32.6649 14.71396491 62860
CO-65
1 32785U 08021C   25269.25006348  .00010066  00000-0  70168-3 0  9996
2 32785  97.7990 241.3647 0008846 190.2446 169.8602 15.05584806945425
CO-66
1 32791U 08021J   25268.93646986  .00026669  00000-0  11844-2 0  9996
2 32791  97.7385 251.6491 0005543 127.2422 232.9320 15.21508314946952
RS-30
1 32953U 08025A   25269.29003929  .00000036  00000-0  18459-3 0  9994
2 32953  82.5059 159.5919 0018978 165.1764 194.9876 12.43168376786900
NOAA-19
1 33591U 09005A   25269.22198112  .00000214  00000-0  13794-3 0  9999
2 33591  98.9869 334.4846 0014587  59.4762 300.7848 14.13411211857191
SRMSAT
1 37841U 11058D   25269.17986681  .00000600  00000-0  18205-3 0  9993
2 37841  19.9710 217.3493 0011835 178.7001 212.4657 14.11469590720470
ZACUBE-1
1 39417U 13066B   25268.86269456  .00011182  00000-0  93978-3 0  9991
2 39417  97.7912 225.4282 0044700  51.2451 309.2753 14.97679079641110
Delfi-N3xt
1 39428U 13066N   25268.75565669  .00017362  00000-0  16969-2 0  9996
2 39428  97.8282 185.2526 0082848   5.3998 354.8093 14.89839346635176
GOMX-1
1 39430U 13066Q   25269.28371135  .00004111  00000-0  63694-3 0  9997
2 39430  97.6700 121.2439 0130816 203.8374 155.6740 14.68062689631174
LO-74
1 39440U 13066AA  25268.84256269  .00006647  00000-0  65834-3 0  9993
2 39440  97.8568 212.7459 0060851 180.9975 179.1132 14.90773670637569
AO-73
1 39444U 13066AE  25268.86568756  .00017090  00000-0  12200-2 0  9998
2 39444  97.7929 231.3546 0041655  23.5279 336.7840 15.03879567639855
DTUSAT-2
1 40030U 14033W   25268.91376326  .00014453  00000-0  89699-3 0  9999
2 40030  98.0674 246.1449 0010771  61.4214 298.8097 15.09776701612732
EO-80
1 40032U 14033Y   25269.19335670  .00014098  00000-0  87311-3 0  9993
2 40032  98.0563 245.9427 0008411  10.4870 349.6532 15.09878930612752
LILACSAT-2
1 40908U 15049K   25269.18105656  .00020502  00000-0  48922-3 0  9993
2 40908  97.5013 292.3123 0010496 123.9801 236.2444 15.41520495554942
IO-86
1 40931U 15052B   25151.18580175  .00001241  00000-0  78118-4 0  9996
2 40931   6.0006  24.0987 0012733 338.8432  21.1169 14.78805930523159
Horyu-4
1 41340U 16012D   25268.83847055  .00051575  00000-0  11521-2 0  9990
2 41340  30.9940 121.3916 0004788  97.1732 262.9460 15.42248155529482
Lapan A3
1 41603U 16040E   25269.31490171  .00006759  00000-0  23041-3 0  9995
2 41603  97.1425 269.7334 0009100 234.7089 125.3302 15.30639172514419
CAS-2T
1 41847U 16066G   25269.15272076  .00003159  00000-0  45636-3 0  9992
2 41847  98.4108 342.6452 0344607 209.7816 148.3365 14.43760521466682
CAS-4B
1 42759U 17034B   25269.20886809  .00393616  65449-4  12425-2 0  9993
2 42759  43.0002  25.5056 0023373 343.0068  17.0022 15.90024047459702
CAS-4A
1 42761U 17034D   25269.34084402  .00526435  12066-3  12408-2 0  9994
2 42761  43.0024  19.7118 0023394 350.6113   9.4324 15.95490086459762
TechnoSat
1 42829U 17042E   25268.96553743  .00006339  00000-0  48089-3 0  9997
2 42829  97.4008  72.6017 0016581 276.8989  83.0350 15.02445823446993
AO-91
1 43017U 17073E   25269.19211092  .00015854  00000-0  77850-3 0  9995
2 43017  97.5051 137.2447 0167916 155.6183 205.3107 15.06539549425557
S-Net D
1 43186U 18014G   25268.68092577  .00010840  00000-0  61837-3 0  9994
2 43186  97.5490 170.4818 0007893 202.1675 157.9216 15.12911420418715
S-Net B
1 43187U 18014H   25269.21689447  .00010436  00000-0  59564-3 0  9998
2 43187  97.5492 170.9892 0008801 196.0585 164.0368 15.12898974418799
S-Net A
1 43188U 18014J   25269.27618060  .00010634  00000-0  60634-3 0  9998
2 43188  97.5501 171.2128 0008631 195.9059 164.1903 15.12929369418803
S-Net C
1 43189U 18014K   25269.28570823  .00010150  00000-0  57930-3 0  9992
2 43189  97.5517 171.2547 0010345 190.2402 169.8620 15.12894840417353
Ten-Koh
1 43677U 18084G   25269.20494174  .00004814  00000-0  38108-3 0  9993
2 43677  98.0787  85.7685 0006698 250.8659 109.1839 15.01090736376538
PO-101
1 43678U 18084H   25269.29384609  .00004500  00000-0  37811-3 0  9996
2 43678  98.1073  89.6468 0008116 285.0157  75.0166 14.98823448376667
QO-100
1 43700U 18090A   25269.15199991  .00000148  00000-0  00000-0 0  9993
2 43700   0.0210 156.7835 0001377  59.1401 229.8171  1.00273356 25028
MinXSS-2
1 43758U 18099A   25269.15538783  .00034274  00000-0  11998-2 0  9998
2 43758  97.4899 335.7273 0012117 131.2974 228.9311 15.29355297373540
AO-95
1 43770U 18099N   25269.14164528  .00018213  00000-0  86487-3 0  9994
2 43770  97.4797 326.0965 0010250 185.7388 174.3731 15.19245956373023
SNUSat 2
1 43782U 18099AA  25268.70544606  .00015226  00000-0  78905-3 0  9994
2 43782  97.4471 321.5082 0012871 134.9757 225.2522 15.16201875372877
SnugLite
1 43784U 18099AC  25268.68668346  .00018515  00000-0  87134-3 0  9999
2 43784  97.4290 321.2957 0004749 127.3172 232.8496 15.19589112373048
ITASat 1
1 43786U 18099AE  25268.70530867  .00012498  00000-0  68390-3 0  9997
2 43786  97.4441 320.6854 0013941 186.6910 173.4138 15.14305007372810
EAGLET 1
1 43790U 18099AJ  25269.13458532  .00007766  00000-0  48123-3 0  9992
2 43790  97.4645 320.6743 0012220 168.7922 191.3582 15.09971439372444
ESEO
1 43792U 18099AL  25269.06807121  .00004256  00000-0  31988-3 0  9990
2 43792  97.4368 312.3866 0013091 150.1518 210.0457 15.03015761372110
JO-97
1 43803U 18099AX  25269.13317100  .00024627  00000-0  10345-2 0  9991
2 43803  97.4537 327.3464 0008536 122.0095 238.1973 15.23400175373289
Suomi 100
1 43804U 18099AY  25269.13805816  .00019562  00000-0  89420-3 0  9991
2 43804  97.4603 326.3086 0013219 126.7465 233.4986 15.20515183373183
ISAT
1 43879U 18111D   25269.25438993  .00044903  00000-0  13344-2 0  9997
2 43879  97.5871 186.3181 0008877 153.0534 207.1171 15.34590640370331
UWE-4
1 43880U 18111E   25268.70357915  .00031761  00000-0  11131-2 0  9992
2 43880  97.5813 183.3951 0010913 175.5906 184.5432 15.29350404370139
Sparrow
1 43881U 18111F   25269.26966223  .00048798  00000-0  13784-2 0  9997
2 43881  97.6039 189.6712 0005515 179.2463 180.8790 15.36187312370440
Prox-1
1 44339U 19036A   25268.62722174  .00018969  00000-0  22850-2 0  9998
2 44339  23.9961  70.9376 0006079 226.0864 133.9131 14.82270813334059
Taurus 1
1 44530U 19059C   25269.35318905  .00015187  00000-0  26971-2 0  9997
2 44530  98.6194  54.0793 0009238  61.0650 299.1478 14.67256463319886
Duchifat 3
1 44854U 19089C   25268.54268488  .00146683  00000-0  17879-2 0  9992
2 44854  36.9386  23.5623 0005983  81.7900 278.3539 15.59075563319795
TO-108
1 44881U 19093C   25269.26233520  .00001866  00000-0  22037-3 0  9992
2 44881  97.7838 342.6067 0012606 230.9059 129.1036 14.85821897312214
FloripaSat 1
1 44885U 19093G   25269.28804091  .00010850  00000-0  88285-3 0  9995
2 44885  97.8138 357.1785 0009415 203.9343 156.1443 14.99688200313037
RS-44
1 44909U 19096E   25269.14725878  .00000040  00000-0  11164-3 0  9997
2 44909  82.5239 155.1693 0218319  41.9067 319.8514 12.79743869268573
UPMSat 2
1 46276U 20061E   25269.15380532  .00501583  10817-3  11143-2 0  9999
2 46276  97.2286 348.7077 0003995 232.3713 127.7203 15.97911747282593
